Dewpoint
-7 4 4 7 12 11 11 8 3 5 4 3 2 1 4 6 9 14 13 14 14 15 15 7 8 10 9 10 11 13 12 10 5 4 5 5 6 7 11 13 12 11 7 6 5 6 6 7 7
-4 4 5 7 10 11 7 3 6 4 1 2 3 2 6 8 10 13 14 14 14 14 15 11 7 8 8 13 12 13 14 12 8 3 5 6 7 7 8 11 13 12 9 6 5 5 6 7 7
-1 3 4 10 7 8 7 4 3 0 2 1 1 5 9 11 11 12 13 13 14 14 15 15 13 8 11 14 14 12 14 13 8 5 6 7 8 9 9 9 11 12 12 8 6 5 6 7 7
1 5 3 3 5 3 3 2 0 -1 -0 -2 -1 10 11 12 12 12 12 13 14 14 15 16 15 10 11 13 13 13 13 13 9 5 6 8 9 10 10 9 8 12 13 9 8 6 6 7 7
2 4 7 3 3 0 1 -1 -1 -1 -3 -3 -3 10 11 12 12 12 12 12 13 14 15 15 12 12 14 13 13 12 11 13 13 10 6 9 12 13 12 11 10 10 13 10 10 8 7 6 7
4 0 5 5 2 -1 -1 -2 -2 -2 -2 -2 -1 3 6 8 12 12 12 12 13 13 15 15 14 12 13 13 12 12 12 12 12 11 9 6 12 13 13 14 12 10 10 9 10 11 9 7 7
6 7 5 1 3 3 -0 -2 -1 -1 -1 -2 -3 -1 1 2 7 10 11 12 12 13 14 14 15 14 13 12 12 12 12 12 12 12 10 7 8 11 12 12 12 12 11 10 10 11 10 10 8
4 5 1 3 4 4 -0 -2 -1 -1 -1 -2 -2 -1 0 -0 -0 9 10 12 13 14 14 14 14 15 15 15 15 15 14 14 13 13 13 12 8 9 12 12 11 11 11 12 12 11 10 10 10
3 7 6 4 4 3 -1 0 -1 -1 -2 -2 -1 -1 -1 -1 -1 -1 8 11 14 13 13 14 14 13 14 15 14 15 15 15 14 13 13 13 13 12 10 10 10 11 11 11 12 12 12 12 11
3 8 4 1 2 2 -0 -1 -1 -2 -1 -1 -1 0 0 2 1 2 4 6 7 7 7 9 11 12 13 14 14 14 15 16 15 15 14 13 13 13 14 15 14 14 13 12 11 12 12 12 12
1 4 1 1 2 -0 -1 -1 -2 -1 2 -2 1 1 0 3 4 5 5 6 6 6 5 5 4 4 5 7 10 10 14 15 15 13 13 14 14 14 14 13 14 14 13 13 12 10 10 11 12
2 -1 -1 0 -1 -1 -1 -0 -1 -1 -1 0 2 2 2 2 2 2 1 1 2 1 1 1 2 2 3 4 7 6 8 11 12 14 14 13 14 12 12 12 14 13 14 14 13 11 10 11 11
-0 -2 -2 -1 -1 -2 -1 -0 0 -2 -2 0 2 2 1 -0 -0 -0 -1 -1 -1 -1 -1 -0 -0 -0 0 -0 0 1 2 5 6 9 11 12 13 14 13 11 11 12 13 13 10 13 12 11 12
-1 -1 -1 -2 -1 -1 -2 -3 -0 -2 -2 -2 -0 2 -1 -1 -2 -2 -1 -1 -0 -0 -0 -0 -0 -1 -0 -1 -1 -1 -2 -2 1 6 8 10 10 10 13 14 12 12 11 11 12 13 13 13 12
-1 1 0 -1 -4 -2 -6 -4 0 -2 -3 -4 -5 -0 -2 -2 -2 -0 -0 -0 -1 -1 -2 -1 -1 -1 -2 -5 -5 -3 -1 -1 -1 2 5 8 9 9 7 9 12 12 13 12 11 11 12 12 12
-2 -2 -1 -1 -3 -5 -6 -3 -5 -5 -5 -4 -5 -2 -2 -1 -1 -1 -1 -2 -3 -3 -2 -2 -3 -3 -3 -5 -4 -2 -0 -1 0 -0 0 4 6 8 8 8 6 8 12 13 12 10 10 10 12
-5 -5 -6 -6 -8 -7 -6 -3 -7 -9 -6 -5 -5 -4 -2 -2 -2 -2 -3 -4 -4 -5 -4 -4 -4 -3 -4 -3 -2 -3 -2 -2 -0 -0 -0 2 2 3 4 8 9 10 10 10 13 12 13 11 10
-5 -7 -8 -6 -8 -7 -8 -8 -8 -11 -3 -4 -4 -2 -3 -4 -4 -4 -4 -5 -5 -5 -5 -4 -4 -4 -6 -3 -3 -7 -5 -4 -3 -2 -3 0 2 4 3 3 7 8 6 7 10 10 10 11 11
-8 -7 -7 -8 -10 -10 -9 -9 -10 -12 -4 -3 -3 -4 -6 -6 -6 -6 -6 -6 -6 -6 -6 -4 -3 -3 -2 -2 -4 -6 -3 -2 -4 -2 2 3 2 3 4 5 3 6 7 9 8 10 11 10 11
-9 -8 -5 -8 -11 -10 -9 -9 -7 -5 -4 -4 -4 -5 -6 -6 -5 -6 -7 -7 -7 -8 -6 -5 -3 -3 -2 -3 -6 -4 -4 -5 -4 -4 -5 -5 -4 1 3 3 3 4 7 5 9 8 10 11 10
-9 -3 -4 -8 -8 -8 -9 -8 -3 -4 -4 -4 -5 -6 -8 -9 -8 -8 -9 -10 -11 -10 -9 -5 -4 -3 -3 -3 -3 -3 -5 -7 -6 -7 -8 -8 -8 -7 -8 -4 3 5 6 7 5 9 8 10 11
-6 -7 -7 -6 -6 -5 -10 -6 -7 -3 -3 -4 -8 -10 -13 -14 -12 -11 -12 -11 -12 -11 -10 -5 -4 -3 -3 -3 -2 -2 -2 -2 -3 -6 -7 -7 -7 -6 -2 1 2 4 4 7 5 8 9 9 9
-7 -7 -7 -7 -7 -8 -8 -5 -5 -4 -4 -8 -11 -14 -14 -13 -13 -11 -11 -11 -10 -10 -7 -6 -5 -3 -3 -3 -3 -3 -3 -3 -3 -2 -3 -4 -4 -4 -9 -5 -1 1 3 6 6 7 8 9 9
-7 -8 -8 -7 -7 -4 -11 -11 -12 -5 -6 -10 -13 -14 -13 -13 -11 -11 -11 -9 -8 -8 -7 -5 -5 -4 -3 -3 -3 -3 -3 -3 -5 -3 -1 -2 -2 -3 -6 -5 -0 1 3 4 6 7 8 8 7
-9 -7 -3 -1 -2 -7 -13 -10 -6 -6 -8 -12 -13 -14 -13 -11 -11 -11 -11 -9 -8 -8 -7 -7 -6 -5 -4 -4 -4 -3 -3 -2 -3 -2 -2 -2 -2 -3 -3 -3 -3 2 2 2 4 6 7 8 7
-7 -8 -3 0 -6 -9 -10 -7 -5 -9 -13 -13 -15 -14 -11 -10 -11 -12 -11 -10 -8 -8 -8 -7 -6 -6 -6 -7 -7 -7 -5 -3 -3 -2 -3 -2 -2 -2 -3 -3 -1 1 -1 3 3 5 7 7 6
-6 -5 -8 -5 -7 -5 -7 -13 -13 -13 -13 -13 -13 -11 -10 -9 -11 -12 -11 -10 -10 -10 -10 -10 -10 -9 -9 -9 -8 -7 -7 -6 -4 -4 -3 -3 -2 -3 -3 -3 -1 -0 2 4 4 5 6 6 6
-7 -11 -7 -6 -1 -4 -11 -10 -10 -11 -12 -13 -12 -11 -11 -12 -13 -13 -12 -11 -11 -10 -10 -11 -10 -10 -9 -8 -8 -7 -6 -5 -4 -3 -3 -2 -2 -3 -4 -2 -0 0 2 3 4 5 6 6 6
-9 -9 -8 -8 -8 -5 -4 -8 -12 -12 -13 -13 -9 -9 -11 -11 -13 -13 -12 -12 -11 -11 -11 -10 -10 -10 -10 -9 -9 -8 -7 -5 -4 -3 -3 -3 -3 -4 -3 -1 -0 1 1 3 5 5 6 6 7
-9 -8 -8 -1 -2 -4 -3 -5 -12 -12 -9 -9 -8 -9 -8 -9 -10 -10 -12 -12 -11 -12 -12 -10 -10 -10 -10 -10 -9 -8 -7 -6 -6 -5 -4 -5 -5 -3 -2 -1 0 0 3 4 5 5 6 7 7
Wind_Speed
4 9 9 4 2 3 5 4 3 4 3 10 12 8 11 23 8 3 6 2 5 5 3 9 9 7 5 4 4 2 0 2 2 1 2 2 2 3 3 2 1 2 2 1 1 1 3 4 6
6 6 4 5 3 3 2 7 11 10 9 5 2 11 13 13 17 13 8 6 7 6 6 3 7 6 5 4 3 3 2 3 4 3 2 2 3 3 3 3 3 2 2 1 1 0 1 2 4
7 4 3 3 4 4 3 11 9 8 6 10 9 8 10 11 15 10 7 7 6 5 3 4 2 4 6 5 3 4 4 5 5 4 4 4 4 3 3 4 5 5 3 3 2 2 2 1 2
5 3 7 2 9 7 13 9 5 3 6 13 10 14 18 16 11 8 6 7 6 4 7 5 7 5 6 5 5 6 6 7 6 5 5 6 6 6 5 6 6 7 6 5 4 4 3 2 2
7 5 3 5 4 6 10 8 6 5 6 15 13 17 22 16 13 9 8 7 6 8 1 4 6 5 6 5 7 7 8 7 8 8 8 8 7 8 7 8 8 9 10 8 6 5 5 4 4
5 4 3 2 10 7 11 14 3 7 17 18 14 12 21 14 12 8 7 7 8 6 3 7 11 4 5 7 8 10 10 10 11 11 10 10 12 13 12 12 11 11 12 10 9 7 7 6 6
4 3 3 5 7 9 9 13 15 12 18 11 10 5 12 16 9 5 6 5 4 6 4 6 8 9 7 8 9 10 11 11 12 12 12 12 14 15 14 16 15 14 14 14 12 11 9 9 8
4 2 3 7 6 6 7 4 4 9 8 6 12 7 7 10 8 5 2 3 5 4 4 6 2 2 6 9 9 11 12 12 14 14 14 14 15 16 18 17 18 18 18 17 16 14 13 11 10
5 2 7 8 9 6 9 8 10 4 4 13 15 15 11 10 6 5 6 7 4 4 9 8 7 9 10 7 10 12 13 15 15 16 17 16 16 16 18 17 17 18 21 21 20 18 16 14 13
2 4 5 5 8 7 9 8 5 7 5 13 13 13 12 9 9 12 10 13 12 10 7 9 9 11 13 16 17 19 18 17 16 15 15 17 17 16 17 20 19 23 21 21 21 20 19 18 17
5 4 1 6 3 7 8 8 6 8 7 9 9 9 10 10 11 12 11 10 13 12 12 14 14 11 9 8 11 13 21 20 22 20 18 17 16 20 20 22 25 24 24 24 25 22 23 23 20
3 6 6 2 6 5 6 6 6 8 6 6 6 7 9 11 11 11 9 9 7 11 12 13 15 15 13 11 12 14 12 11 21 22 25 24 21 22 24 25 26 23 24 21 18 18 21 20 18
7 4 3 4 1 3 8 1 4 8 6 3 3 6 10 11 11 10 9 9 10 11 12 14 14 18 17 17 18 17 15 13 15 10 14 17 21 24 22 26 26 25 26 27 17 31 21 20 19
4 2 3 3 4 7 11 15 3 9 9 6 3 5 9 10 10 11 12 13 13 14 16 16 17 18 19 19 20 20 19 19 17 13 12 13 19 18 23 26 27 26 26 24 24 25 19 23 22
4 4 6 7 9 6 19 7 8 11 6 5 12 7 9 9 10 12 12 13 13 14 14 16 17 18 20 21 21 20 20 19 17 17 14 13 15 21 20 20 29 26 26 25 25 25 28 27 25
5 2 2 5 7 6 11 7 12 6 3 5 8 9 8 7 8 10 12 13 14 14 15 15 17 17 20 23 20 18 18 18 15 19 13 15 16 19 17 20 20 21 28 26 26 26 25 25 27
9 7 11 8 14 8 7 10 12 24 8 6 8 6 6 4 8 10 11 13 15 17 17 18 19 20 22 20 19 18 19 19 18 20 17 16 20 18 17 17 18 19 20 25 28 29 28 25 27
10 7 8 6 9 6 12 15 10 23 6 6 4 6 4 7 7 6 10 14 16 18 19 20 23 24 24 23 23 25 22 21 22 23 22 21 20 24 23 19 18 22 22 22 22 28 30 32 31
6 7 10 9 9 15 8 17 15 17 11 10 6 7 10 10 11 12 14 16 20 21 19 19 21 22 22 23 27 27 25 25 24 19 20 20 19 20 19 24 21 18 22 19 21 25 25 30 31
7 8 7 11 12 17 14 19 6 12 11 13 14 13 11 13 15 18 18 22 23 24 25 21 18 20 22 22 25 21 24 23 22 21 22 23 23 23 25 25 25 22 23 22 21 22 27 27 28
10 5 9 13 21 16 9 5 6 10 16 11 8 16 18 18 19 21 25 28 27 28 25 24 17 18 20 21 23 22 25 25 27 29 27 26 25 25 25 26 23 25 21 24 24 23 23 28 26
7 9 15 17 12 4 7 6 2 9 8 6 19 18 18 20 23 26 29 29 30 31 29 19 19 19 20 22 21 23 25 27 30 31 31 29 27 26 20 21 24 26 23 22 25 27 24 23 29
5 12 20 20 16 12 8 3 4 9 9 12 16 20 22 23 29 28 27 29 30 29 28 23 25 25 22 21 22 24 25 29 32 33 32 32 31 32 29 24 25 24 24 24 27 27 27 24 27
9 14 23 14 7 2 12 6 4 5 6 5 14 19 20 24 23 24 27 30 29 28 28 25 25 26 21 22 22 24 24 29 33 34 32 36 36 38 34 29 23 22 25 29 28 27 27 27 25
16 10 5 5 1 5 21 10 7 9 6 9 14 21 23 21 22 23 24 26 27 28 28 28 28 26 20 23 26 27 28 31 33 30 31 34 38 41 37 37 29 29 29 31 31 31 27 28 28
10 4 2 6 4 13 13 3 3 7 11 18 17 17 22 22 23 23 22 24 24 26 26 26 26 25 26 27 28 27 29 31 30 29 33 34 38 37 39 41 34 31 33 26 28 28 30 29 30
6 6 5 6 10 9 4 5 10 17 21 22 28 25 26 23 27 23 23 24 26 26 27 28 29 29 31 31 31 31 31 31 31 34 32 35 36 37 40 40 33 32 28 29 28 28 30 30 29
2 1 4 3 5 6 7 22 9 23 26 20 20 27 28 27 27 28 27 26 28 25 28 30 31 31 29 29 30 30 32 33 32 31 35 35 37 40 42 36 33 30 30 30 28 28 29 29 31
3 4 4 5 3 7 10 7 17 22 21 19 23 29 29 28 28 27 28 29 26 27 30 31 31 29 30 31 32 33 33 32 32 33 34 36 40 41 42 37 34 34 35 34 27 29 29 29 32
6 8 6 2 7 7 10 17 10 20 31 31 24 23 28 29 32 34 31 27 30 31 31 30 30 31 32 33 33 33 33 33 34 34 37 39 41 38 37 36 35 34 32 29 26 27 28 29 30
Wind_Direction
333 7 340 298 339 212 256 55 44 95 98 39 31 1 63 58 40 58 99 80 127 173 258 185 184 192 178 186 174 190 36 329 328 322 173 161 175 176 152 180 1 7 15 29 49 83 38 36 40
8 47 301 276 249 254 71 136 72 47 34 349 234 337 67 60 75 103 95 57 109 151 265 263 187 187 185 180 188 210 246 300 298 289 246 209 202 213 207 207 251 299 313 312 291 241 1 31 33
3 336 265 221 246 30 64 54 63 94 48 354 356 74 39 356 58 70 69 72 112 125 248 318 346 214 188 189 213 256 243 288 279 279 259 239 224 221 236 242 245 266 279 295 268 249 259 320 6
4 229 258 260 284 42 46 60 0 97 110 36 349 92 75 48 52 46 89 67 112 98 187 253 289 247 205 211 230 246 256 278 280 275 260 241 236 230 230 239 249 256 265 283 271 265 258 272 297
313 275 265 227 88 71 65 34 356 47 42 44 351 92 86 68 58 60 65 70 89 86 1 324 322 243 222 223 241 257 260 263 282 287 277 258 251 246 242 247 250 248 253 269 267 262 264 271 277
281 236 282 303 87 72 65 0 0 21 64 28 30 9 76 66 62 57 50 86 57 101 8 344 349 330 282 266 260 259 261 263 267 277 276 265 251 254 252 251 255 253 254 257 252 255 257 260 261
297 328 316 353 80 72 36 2 24 358 52 41 350 337 69 49 45 41 34 55 40 41 55 13 337 337 336 330 308 289 276 273 273 275 272 265 256 254 257 250 253 250 253 253 248 247 252 253 252
324 279 234 21 17 62 27 33 16 13 86 61 9 28 44 27 29 30 40 73 167 144 186 208 220 325 332 282 282 289 291 284 280 278 276 270 263 258 259 258 256 255 251 251 252 251 251 249 249
289 286 41 31 23 71 41 353 38 338 295 78 59 45 16 11 6 10 93 74 130 186 237 259 253 240 258 271 281 284 278 278 279 278 278 276 270 275 272 265 269 266 256 252 250 250 250 249 248
333 46 48 15 46 5 348 336 10 322 33 51 35 29 29 27 47 44 32 32 359 321 316 286 273 269 260 259 254 268 271 272 273 274 273 276 283 275 271 269 267 254 256 254 248 251 252 250 250
20 75 332 66 44 335 317 334 330 353 67 59 45 29 28 40 49 41 44 42 24 348 343 340 334 329 319 326 317 279 265 276 270 269 260 262 264 265 263 261 263 255 256 257 256 245 247 248 252
165 77 17 50 10 329 338 307 103 74 89 85 64 35 37 44 46 49 37 39 19 0 351 343 342 341 343 337 317 324 333 306 287 275 270 261 257 257 261 264 271 267 261 255 254 263 249 251 253
50 33 5 27 43 0 327 327 354 125 134 129 70 49 48 41 37 41 39 45 25 22 10 3 1 352 356 356 349 344 337 323 319 322 316 301 274 260 264 261 261 265 271 272 273 236 242 252 253
3 348 109 61 72 59 354 316 152 148 172 196 197 114 60 42 30 24 26 20 24 15 13 14 13 3 351 356 353 351 348 340 333 322 315 317 314 297 269 265 265 264 266 266 254 249 248 240 248
285 201 187 88 15 42 342 274 202 140 178 344 356 94 69 45 22 26 23 17 14 12 8 10 3 354 347 349 347 344 342 340 343 331 325 317 308 297 295 283 262 265 265 263 258 251 246 247 249
234 267 19 108 47 46 17 304 9 308 69 20 359 46 64 55 30 28 18 14 12 8 6 359 355 347 343 346 344 342 330 323 335 314 313 313 304 294 305 302 292 274 265 266 263 259 259 258 254
56 4 359 340 57 14 23 281 276 304 359 356 16 46 51 55 44 26 17 12 6 359 349 351 352 349 348 351 344 329 321 315 302 297 302 309 297 301 299 292 291 290 280 266 260 259 259 259 258
335 340 318 318 337 346 307 276 284 311 77 30 69 101 73 41 35 29 18 2 351 350 340 342 347 341 344 343 337 339 336 328 317 316 313 296 307 316 302 292 287 282 282 273 272 263 258 258 257
273 311 306 343 318 336 282 287 277 276 143 123 98 63 44 16 6 20 3 353 351 347 333 346 342 340 344 340 335 338 335 325 329 327 319 302 295 299 303 296 290 299 291 288 268 268 261 255 254
324 303 330 299 334 315 294 290 334 54 67 66 65 40 25 16 1 345 345 344 341 339 331 325 334 336 341 332 331 332 327 332 322 316 311 304 299 291 289 294 296 289 291 288 279 277 264 256 248
339 24 327 300 319 285 314 291 117 85 92 95 92 49 23 10 348 346 345 339 339 336 328 318 321 329 329 320 326 326 329 329 328 327 326 325 320 307 298 291 288 284 276 286 273 271 270 261 253
316 12 315 300 313 305 12 288 328 132 115 140 62 38 6 1 352 347 342 340 335 329 325 319 322 322 319 314 315 321 323 321 323 322 323 322 327 324 316 302 287 280 274 279 273 274 267 263 255
291 325 291 286 280 289 292 340 98 147 86 52 35 14 5 359 350 343 343 341 337 329 323 316 319 309 304 306 308 309 310 317 317 315 320 322 322 319 321 307 281 279 281 270 266 266 263 257 252
298 312 294 266 233 249 39 358 268 57 61 54 26 17 6 349 344 344 345 342 340 335 332 322 316 313 301 306 307 304 300 304 313 314 312 316 316 318 320 322 294 280 274 269 265 256 261 263 257
0 347 332 353 249 267 12 342 62 84 67 19 12 1 348 348 350 347 342 341 340 338 336 331 328 328 322 306 309 307 298 301 305 307 305 309 312 316 316 315 306 283 274 269 266 262 259 258 261
317 358 344 298 333 298 324 293 76 122 39 9 5 359 353 349 348 344 342 336 332 332 332 333 332 329 327 323 318 314 311 304 303 298 305 304 308 309 308 314 307 296 291 282 278 257 251 259 257
2 47 298 284 261 263 253 318 335 340 353 5 356 356 347 354 350 342 336 330 333 332 332 331 325 323 321 316 315 313 311 314 304 302 301 304 305 304 308 312 307 302 293 291 287 276 261 249 256
227 215 20 288 311 308 304 309 301 344 338 348 352 354 354 358 353 341 334 328 326 330 332 330 327 324 324 323 321 318 316 310 308 304 303 303 304 304 310 314 308 301 290 287 283 277 269 255 248
12 352 349 338 307 291 304 290 341 309 336 335 6 346 348 345 338 333 331 327 326 331 330 329 328 327 327 321 317 318 315 311 309 308 305 303 301 306 313 313 306 293 294 290 279 270 267 257 252
75 28 358 10 306 299 285 287 310 341 347 350 345 346 344 342 341 335 325 330 335 332 328 327 325 327 327 322 319 315 313 311 311 309 306 309 311 305 308 307 300 296 297 284 275 263 266 258 250
Height
1500 1501 1502 1503 1509 1503 1497 1492 1481 1484 1485 1487 1489 1488 1489 1492 1498 1515 1508 1509 1508 1507 1506 1506 1507 1510 1509 1511 1512 1513 1514 1515 1514 1515 1515 1516 1516 1516 1516 1517 1517 1518 1518 1518 1518 1518 1518 1518 1518
1501 1501 1504 1502 1510 1508 1497 1482 1491 1490 1492 1491 1490 1490 1491 1499 1501 1506 1510 1510 1510 1510 1507 1507 1509 1509 1511 1512 1512 1513 1514 1515 1515 1516 1516 1516 1517 1517 1517 1517 1517 1518 1518 1518 1518 1518 1518 1518 1518
1501 1503 1504 1500 1497 1505 1501 1489 1489 1492 1493 1492 1491 1492 1495 1505 1504 1509 1511 1511 1512 1512 1510 1509 1511 1511 1512 1512 1512 1514 1514 1516 1516 1516 1516 1516 1517 1517 1518 1518 1517 1518 1518 1518 1518 1517 1518 1518 1518
1502 1504 1502 1504 1501 1491 1493 1492 1493 1491 1494 1495 1495 1499 1505 1507 1509 1512 1513 1513 1512 1512 1512 1512 1512 1512 1512 1512 1513 1513 1514 1515 1515 1516 1516 1516 1516 1517 1517 1517 1517 1517 1517 1518 1517 1517 1517 1517 1517
1504 1502 1503 1500 1494 1489 1492 1495 1495 1494 1496 1499 1498 1503 1507 1510 1511 1513 1514 1514 1514 1513 1513 1513 1513 1512 1512 1512 1513 1513 1514 1514 1514 1515 1515 1515 1515 1515 1516 1516 1516 1516 1516 1516 1516 1516 1516 1515 1516
1504 1500 1504 1503 1497 1492 1495 1498 1497 1497 1498 1502 1502 1504 1511 1512 1512 1514 1515 1514 1515 1515 1514 1514 1514 1514 1514 1513 1513 1513 1513 1513 1513 1513 1513 1513 1514 1514 1514 1514 1514 1514 1513 1514 1513 1514 1513 1513 1514
1503 1501 1501 1495 1498 1500 1502 1501 1502 1502 1501 1506 1507 1506 1514 1513 1514 1514 1515 1515 1515 1516 1517 1514 1513 1515 1513 1513 1513 1512 1512 1511 1511 1511 1511 1511 1511 1510 1511 1511 1512 1511 1511 1511 1511 1511 1511 1511 1511
1504 1502 1495 1501 1502 1512 1505 1504 1507 1507 1506 1507 1507 1509 1513 1513 1514 1514 1515 1514 1512 1513 1512 1512 1512 1513 1512 1512 1512 1511 1511 1510 1510 1509 1509 1508 1508 1508 1508 1508 1508 1508 1508 1508 1508 1508 1509 1508 1508
1505 1508 1511 1512 1510 1508 1507 1506 1507 1507 1506 1508 1511 1512 1514 1514 1514 1514 1511 1511 1510 1510 1511 1511 1511 1511 1510 1510 1510 1509 1508 1508 1507 1507 1507 1505 1505 1505 1505 1504 1504 1504 1504 1504 1504 1505 1506 1506 1506
1505 1510 1512 1509 1510 1511 1509 1509 1509 1508 1506 1511 1513 1515 1516 1514 1514 1514 1512 1512 1511 1510 1509 1507 1508 1507 1507 1506 1506 1505 1505 1505 1504 1505 1504 1503 1503 1502 1501 1500 1498 1498 1498 1499 1500 1502 1503 1504 1503
1505 1511 1508 1510 1512 1512 1510 1508 1508 1508 1512 1514 1515 1516 1516 1516 1515 1515 1514 1515 1514 1511 1510 1508 1506 1504 1503 1503 1501 1501 1500 1500 1500 1500 1499 1498 1498 1498 1498 1497 1494 1493 1491 1494 1496 1494 1497 1497 1501
1508 1510 1510 1511 1512 1512 1510 1509 1508 1510 1514 1515 1517 1517 1517 1516 1516 1517 1516 1516 1514 1511 1510 1509 1506 1505 1504 1502 1500 1499 1498 1497 1495 1494 1494 1493 1493 1493 1494 1492 1490 1486 1488 1488 1491 1491 1493 1493 1495
1508 1511 1511 1512 1512 1512 1511 1508 1508 1511 1514 1515 1515 1516 1516 1516 1517 1517 1517 1516 1515 1512 1510 1507 1505 1503 1502 1501 1500 1499 1497 1495 1494 1492 1490 1489 1488 1487 1487 1486 1485 1484 1483 1485 1482 1470 1489 1487 1490
1512 1511 1511 1511 1512 1513 1514 1510 1508 1510 1512 1513 1513 1514 1516 1518 1519 1519 1518 1517 1516 1515 1512 1510 1507 1504 1501 1499 1499 1498 1496 1494 1492 1490 1489 1488 1485 1483 1482 1482 1481 1480 1481 1483 1484 1487 1483 1485 1488
1512 1511 1510 1511 1512 1514 1513 1505 1506 1509 1512 1513 1515 1514 1517 1519 1520 1521 1520 1519 1518 1515 1513 1511 1509 1505 1501 1499 1497 1496 1495 1493 1490 1489 1487 1486 1484 1480 1478 1476 1476 1475 1475 1476 1478 1480 1481 1482 1482
1508 1508 1515 1513 1513 1516 1519 1522 1511 1511 1511 1513 1515 1515 1516 1519 1522 1523 1523 1522 1519 1516 1513 1511 1509 1505 1501 1498 1495 1494 1493 1491 1489 1486 1484 1483 1480 1477 1475 1472 1471 1471 1470 1470 1470 1472 1474 1475 1477
1516 1531 1526 1520 1514 1517 1519 1520 1509 1509 1507 1509 1511 1513 1515 1518 1519 1521 1521 1522 1521 1518 1514 1510 1507 1503 1499 1497 1495 1492 1489 1488 1485 1482 1481 1478 1477 1474 1472 1469 1467 1466 1465 1464 1465 1464 1466 1469 1470
1541 1534 1527 1523 1517 1516 1518 1513 1506 1506 1506 1509 1511 1513 1516 1517 1518 1518 1519 1520 1519 1518 1514 1509 1506 1502 1497 1494 1492 1490 1487 1485 1482 1478 1476 1474 1472 1471 1469 1465 1464 1462 1459 1459 1460 1459 1460 1462 1465
1532 1531 1529 1522 1517 1518 1511 1506 1499 1496 1499 1506 1511 1514 1516 1518 1518 1517 1517 1517 1517 1516 1512 1508 1507 1503 1498 1492 1490 1487 1484 1483 1480 1477 1474 1469 1468 1466 1462 1461 1460 1459 1456 1454 1454 1454 1454 1455 1458
1528 1528 1530 1526 1517 1521 1509 1504 1499 1499 1506 1512 1517 1522 1524 1525 1525 1523 1520 1517 1514 1514 1512 1507 1505 1501 1496 1492 1490 1488 1484 1480 1478 1474 1470 1467 1463 1460 1458 1456 1454 1453 1452 1451 1449 1450 1449 1449 1453
1535 1538 1540 1539 1524 1514 1510 1499 1503 1508 1512 1516 1520 1522 1524 1526 1525 1522 1520 1518 1515 1512 1509 1504 1500 1497 1496 1493 1490 1486 1481 1477 1473 1469 1464 1462 1459 1456 1452 1450 1449 1447 1447 1446 1445 1444 1445 1444 1446
1543 1541 1540 1534 1533 1531 1516 1527 1505 1512 1516 1518 1521 1524 1526 1526 1525 1522 1518 1516 1512 1510 1507 1502 1496 1495 1494 1491 1488 1484 1479 1473 1471 1466 1462 1457 1453 1451 1449 1446 1443 1441 1439 1439 1440 1440 1438 1439 1440
1545 1541 1535 1530 1529 1528 1513 1526 1515 1510 1519 1525 1523 1523 1524 1524 1524 1522 1518 1515 1510 1508 1504 1499 1495 1493 1491 1487 1484 1480 1475 1471 1467 1463 1457 1453 1448 1445 1443 1440 1438 1436 1434 1432 1433 1432 1433 1432 1434
1543 1535 1519 1513 1522 1533 1526 1535 1520 1520 1527 1527 1527 1526 1525 1524 1522 1519 1515 1512 1508 1506 1501 1496 1492 1488 1487 1484 1480 1476 1471 1468 1463 1458 1452 1447 1443 1439 1436 1433 1432 1430 1427 1425 1424 1425 1426 1426 1426
1547 1546 1545 1534 1532 1528 1513 1530 1531 1527 1528 1528 1526 1522 1521 1520 1518 1515 1514 1511 1507 1503 1499 1494 1489 1486 1483 1480 1476 1473 1468 1464 1459 1453 1449 1444 1438 1434 1430 1427 1425 1422 1420 1418 1418 1416 1417 1420 1420
1554 1554 1564 1566 1555 1546 1531 1534 1534 1528 1530 1529 1528 1525 1523 1520 1516 1513 1512 1510 1506 1502 1497 1493 1489 1484 1481 1477 1472 1468 1463 1458 1453 1449 1445 1440 1436 1430 1425 1420 1417 1415 1412 1410 1410 1408 1408 1411 1413
1558 1567 1567 1568 1555 1557 1536 1520 1520 1521 1524 1527 1528 1525 1522 1517 1513 1512 1510 1508 1504 1499 1495 1491 1486 1482 1477 1473 1467 1462 1457 1453 1448 1443 1439 1435 1430 1425 1420 1414 1409 1407 1405 1403 1403 1401 1401 1402 1401
1563 1566 1575 1568 1587 1571 1543 1539 1537 1537 1533 1530 1525 1524 1520 1515 1513 1512 1509 1505 1501 1497 1492 1488 1483 1478 1473 1468 1463 1457 1452 1448 1443 1438 1433 1429 1424 1418 1412 1406 1403 1400 1398 1396 1394 1392 1393 1394 1395
1568 1570 1569 1571 1570 1574 1566 1550 1543 1541 1537 1532 1528 1529 1522 1518 1514 1511 1507 1503 1499 1494 1489 1484 1480 1474 1469 1464 1458 1453 1447 1442 1438 1433 1428 1422 1416 1411 1405 1400 1396 1393 1389 1386 1384 1384 1384 1385 1386
1571 1578 1580 1595 1589 1585 1582 1560 1547 1544 1542 1535 1530 1528 1524 1519 1515 1510 1505 1500 1495 1491 1486 1481 1476 1471 1466 1460 1454 1448 1442 1437 1432 1427 1421 1414 1408 1404 1400 1395 1388 1383 1380 1377 1375 1375 1375 1376 1377